Date String (YYYY-MM-DD hh:mm:ss) UTC,Instrument flags,Ambient pressure (hPa),Sample flow (lpm),Bypass flow (lpm),Sample temperature (°C),Ambient temperature (°C),ASC tube jacket temperature (°C),LED temperature (°C),Box temperature (°C),Sample RH (%),Span deviation,Mass concentration (μg/m³),Mass concentration (μg/m³),Mass concentration (μg/m³)
DateTimeUTC,F1_M11,P_M11,Q1_M11,Q2_M11,T1_M11,T2_M11,T3_M11,T4_M11,T5_M11,U1_M11,ZSPAN_M11,X0_M11,X2_M11,X1_M11
2022-07-16 08:00:00,,0831.2,5.00,0.00,31.3,27.7,00.0,39.5,32.2,34.7,0000.0,0008.98,0004.94,0004.27
2022-07-16 08:01:00,,0831.2,5.00,0.00,31.4,27.9,00.0,39.5,32.2,34.5,0000.0,0009.40,0004.96,0004.27
2022-07-16 08:02:00,,0831.2,4.99,0.00,31.4,28.0,00.0,39.5,32.1,34.5,0000.0,0009.71,0004.98,0004.27
2022-07-16 08:03:00,,0831.2,5.01,0.00,31.4,28.1,00.0,39.5,32.1,34.5,0000.0,0009.79,0005.00,0004.29
2022-07-16 08:04:00,,0831.2,5.01,0.00,31.4,28.3,00.0,39.5,32.1,34.5,0000.0,0009.33,0004.96,0004.29
2022-07-16 08:05:00,,0831.2,5.00,0.00,31.4,28.4,00.0,39.5,32.1,34.5,0000.0,0009.32,0004.97,0004.29
2022-07-16 08:06:00,,0831.2,5.00,0.00,31.4,28.5,00.0,39.6,32.2,34.6,0000.0,0009.44,0004.97,0004.27
2022-07-16 08:07:00,,0831.4,4.99,0.00,31.4,28.6,00.0,39.6,32.2,34.7,0000.0,0009.44,0004.97,0004.27
2022-07-16 08:08:00,,0831.3,5.01,0.00,31.3,28.7,00.0,39.6,32.2,34.7,0000.0,0009.46,0004.98,0004.27
2022-07-16 08:09:00,,0831.3,5.00,0.00,31.3,28.8,00.0,39.6,32.3,34.7,0000.0,0009.48,0004.96,0004.26
2022-07-16 08:10:00,,0831.4,4.99,0.00,31.3,28.9,00.0,39.7,32.3,34.7,0000.0,0009.37,0004.94,0004.27
2022-07-16 08:11:00,,0831.3,4.99,0.00,31.3,28.7,00.0,39.6,32.3,34.7,0000.0,0009.29,0004.95,0004.28
2022-07-16 08:12:00,,0831.3,5.01,0.00,31.3,28.0,00.0,39.6,32.2,34.7,0000.0,0008.90,0004.95,0004.28
2022-07-16 08:13:00,,0831.2,5.00,0.00,31.2,27.7,00.0,39.5,32.2,35.0,0000.0,0008.62,0004.94,0004.29
2022-07-16 08:14:00,,0831.2,5.00,0.00,31.2,27.7,00.0,39.5,32.1,35.1,0000.0,0008.73,0004.96,0004.29
2022-07-16 08:15:00,,0831.2,5.00,0.00,31.3,27.7,00.0,39.5,32.2,34.7,0000.0,0008.79,0004.97,0004.27
2022-07-16 08:16:00,,0831.2,4.99,0.00,31.4,27.9,00.0,39.5,32.2,34.5,0000.0,0008.68,0004.92,0004.26
2022-07-16 08:17:00,,0831.2,5.00,0.00,31.4,28.0,00.0,39.5,32.1,34.4,0000.0,0008.53,0004.90,0004.26
2022-07-16 08:18:00,,0831.1,5.00,0.00,31.4,28.2,00.0,39.5,32.1,34.4,0000.0,0008.61,0004.92,0004.25
2022-07-16 08:19:00,,0831.2,5.00,0.00,31.4,28.3,00.0,39.6,32.1,34.4,0000.0,0008.71,0004.95,0004.24
2022-07-16 08:20:00,,0831.2,5.00,0.00,31.4,28.4,00.0,39.6,32.2,34.4,0000.0,0008.81,0004.94,0004.23
2022-07-16 08:21:00,,0831.2,5.00,0.00,31.4,28.5,00.0,39.6,32.2,34.4,0000.0,0009.06,0004.95,0004.22
2022-07-16 08:22:00,,0831.2,5.00,0.00,31.4,28.6,00.0,39.6,32.2,34.4,0000.0,0009.37,0004.97,0004.22
2022-07-16 08:23:00,,0831.2,4.99,0.00,31.3,28.7,00.0,39.6,32.2,34.5,0000.0,0009.84,0004.95,0004.21
2022-07-16 08:24:00,,0831.1,5.01,0.00,31.3,28.8,00.0,39.7,32.3,34.5,0000.0,0009.90,0004.92,0004.21
2022-07-16 08:25:00,,0831.1,4.99,0.00,31.3,28.8,00.0,39.7,32.3,34.5,0000.0,0009.71,0004.88,0004.21
2022-07-16 08:26:00,,0831.0,5.01,0.00,31.3,28.2,00.0,39.6,32.3,34.5,0000.0,0009.73,0004.89,0004.21
2022-07-16 08:27:00,,0831.0,4.99,0.00,31.2,27.8,00.0,39.5,32.2,34.6,0000.0,0009.70,0004.88,0004.21
2022-07-16 08:28:00,,0831.0,5.01,0.00,31.1,27.6,00.0,39.5,32.0,34.8,0000.0,0009.66,0004.85,0004.21
2022-07-16 08:29:00,,0831.1,4.99,0.00,31.0,27.7,00.0,39.5,32.0,35.1,0000.0,0009.61,0004.82,0004.22
2022-07-16 08:30:00,,0831.0,5.02,0.00,31.1,27.8,00.0,39.5,32.1,35.0,0000.0,0009.55,0004.78,0004.22
2022-07-16 08:31:00,,0831.0,4.99,0.00,31.3,27.9,00.0,39.5,32.2,34.5,0000.0,0009.36,0004.77,0004.22
2022-07-16 08:32:00,,0831.0,5.01,0.00,31.4,28.1,00.0,39.5,32.2,34.3,0000.0,0009.01,0004.73,0004.21
2022-07-16 08:33:00,,0831.0,5.00,0.00,31.4,28.2,00.0,39.5,32.1,34.2,0000.0,0008.60,0004.71,0004.20
2022-07-16 08:34:00,,0831.0,5.00,0.00,31.4,28.3,00.0,39.5,32.1,34.3,0000.0,0008.10,0004.72,0004.19
2022-07-16 08:35:00,,0831.0,5.00,0.00,31.4,28.5,00.0,39.6,32.2,34.3,0000.0,0007.93,0004.71,0004.17
2022-07-16 08:36:00,,0831.0,5.00,0.00,31.4,28.6,00.0,39.6,32.2,34.3,0000.0,0007.87,0004.68,0004.16
2022-07-16 08:37:00,,0831.0,4.99,0.00,31.4,28.7,00.0,39.6,32.2,34.3,0000.0,0007.84,0004.67,0004.15
2022-07-16 08:38:00,,0831.0,5.00,0.00,31.4,28.7,00.0,39.6,32.2,34.4,0000.0,0007.84,0004.68,0004.15
2022-07-16 08:39:00,,0831.0,5.00,0.00,31.4,28.8,00.0,39.6,32.3,34.4,0000.0,0007.95,0004.73,0004.15
2022-07-16 08:40:00,,0831.0,5.00,0.00,31.3,28.9,00.0,39.7,32.3,34.6,0000.0,0007.97,0004.77,0004.17
2022-07-16 08:41:00,,0831.0,4.99,0.00,31.3,28.9,00.0,39.7,32.3,34.6,0000.0,0008.26,0004.84,0004.23
2022-07-16 08:42:00,,0831.1,5.01,0.00,31.3,28.3,00.0,39.6,32.3,34.6,0000.0,0008.81,0004.87,0004.26
2022-07-16 08:43:00,,0831.0,4.99,0.00,31.3,27.8,00.0,39.6,32.2,34.6,0000.0,0009.70,0004.93,0004.31
2022-07-16 08:44:00,,0831.1,5.01,0.00,31.2,27.7,00.0,39.6,32.1,34.9,0000.0,0010.55,0004.98,0004.36
2022-07-16 08:45:00,,0831.1,4.99,0.00,31.1,27.7,00.0,39.6,32.0,35.1,0000.0,0011.10,0005.05,0004.41
2022-07-16 08:46:00,,0831.0,5.00,0.00,31.2,27.8,00.0,39.5,32.1,34.8,0000.0,0011.17,0005.10,0004.44
2022-07-16 08:47:00,,0831.0,5.01,0.00,31.3,28.0,00.0,39.5,32.1,34.6,0000.0,0011.53,0005.15,0004.48
2022-07-16 08:48:00,,0831.0,4.99,0.00,31.3,28.1,00.0,39.5,32.1,34.5,0000.0,0011.56,0005.20,0004.52
2022-07-16 08:49:00,,0831.0,5.00,0.00,31.3,28.2,00.0,39.5,32.1,34.5,0000.0,0011.65,0005.24,0004.55
2022-07-16 08:50:00,,0831.0,5.01,0.00,31.3,28.3,00.0,39.5,32.1,34.5,0000.0,0011.65,0005.23,0004.58
2022-07-16 08:51:00,,0831.1,4.99,0.00,31.3,28.5,00.0,39.6,32.1,34.5,0000.0,0011.75,0005.26,0004.59
2022-07-16 08:52:00,,0831.0,5.00,0.00,31.3,28.6,00.0,39.6,32.2,34.6,0000.0,0011.68,0005.24,0004.58
2022-07-16 08:53:00,,0831.0,5.00,0.00,31.3,28.7,00.0,39.6,32.2,34.6,0000.0,0011.24,0005.24,0004.57
2022-07-16 08:54:00,,0831.0,5.01,0.00,31.3,28.7,00.0,39.6,32.2,34.6,0000.0,0010.44,0005.25,0004.56
2022-07-16 08:55:00,,0830.9,5.00,0.00,31.2,28.8,00.0,39.6,32.3,34.5,0000.0,0009.83,0005.23,0004.54
2022-07-16 08:56:00,,0831.0,5.00,0.00,31.2,28.9,00.0,39.6,32.3,34.5,0000.0,0009.10,0005.18,0004.50
2022-07-16 08:57:00,,0831.0,5.00,0.00,31.2,28.9,00.0,39.6,32.3,34.6,0000.0,0009.16,0005.17,0004.50
2022-07-16 08:58:00,,0831.0,4.99,0.00,31.2,28.3,00.0,39.6,32.3,34.5,0000.0,0008.83,0005.14,0004.50
2022-07-16 08:59:00,,0830.9,5.00,0.00,31.2,27.7,00.0,39.5,32.2,34.7,0000.0,0008.79,0005.11,0004.49
